Starlink 6075

operational
NORAD ID: 56102 Int'l Des: 2023-046 Owner: SPXS Country: US Constellation: starlink
LEOCIRCULAR

Über Starlink 6075

Beschreibung wird geladen...

Live-Position

3D-Globus wird geladen...

Nächste Überflüge

Höhenverlauf

Altitude vs Time

uPlot chart will show altitude changes over time

Zweizeiliger Elementsatz

1 56102U 23046K 25304.60013360 .00000460 00000-0 49088-4 0 9995
2 56102 43.0015 140.3810 0001143 272.0736 87.9975 15.02534488142644
Epoch: 31. Okt. 2025 • Age: 21 hours

Aktueller Status

Höhe 564.0 km
Geschwindigkeit 7.58 km/s
Subsatellitenpunkt -23.09°S, 97.16°W
Startdatum 29. März 2023
Alter 2.5 years
Typ internet

Technische Details

Klassifizierung Payload
Masse 305.00 kg
Trockenmasse 290.00 kg
Gesamtmasse 305.00 kg
Länge 0.20 m
Durchmesser 2.80 m
Spannweite 9.00 m
Form Box + pan
Hersteller SPXS
Bus-Typ Starlink
Phasenstatus In Orbit
Besitzer/Staat SPXS/US

Große Konstellationen

Loading constellations...